Location: Blangy-Tronville
(49.8790°N, 2.4226°E)
Time: 21:47:53
(UTC+00:00)

Cosmos 1862 - Pass Details

Date: 18 November 2025
Orbit: 473 x 486 km, 82.5° (Epoch: 04 December)

Event Time Altitude Azimuth Distance (km) Brightness Sun altitude
Rises 17:48:59 0° 351° (N) 2,544 6.7 -16.8°
Reaches altitude 10° 17:51:05 10° 353° (N) 1,662 5.7 -17.2°
Maximum altitude 17:54:43 77° 80° (E) 498 2.9 -17.7°
Drops below altitude 10° 17:58:20 10° 166° (SSE) 1,656 5.7 -18.3°
Sets 18:00:26 0° 168° (SSE) 2,533 6.7 -18.7°
